THORAD AGENA D DEB, 5698

Orbit data source: Space-Track

THORAD AGENA D DEB, 5698 is space debris in SSO originally from a launch on Wed, 08 Apr 1970 UTC launched from the Air Force Western Test Range (AFWTR). Debris objects in space refer to the collection of defunct objects orbiting the Earth. Examples of debris include non-operational satellites, rocket bodies, and fragments generated from explosions, collisions, or faulty payload assembly.

Loading next visibility...
Identifier
5698, 1970-025MD
Orbit
SSO
Country
Flag of USUS
Related business
Manufacturer
Unknown
Mission
Spacecraft
Bus & Motor
Unknown
Mass
Unknown
Launch date (UTC)
1970-04-08 (56 years ago)
Launch vehicle
Unknown
Launch site
Air Force Western Test Range (AFWTR)
Object type
Payload
Rocket body
Debris
Shape & HBR
Unknown shape, 0.1 m
Radar Cross Section
Small (<0.1 m²)

Expand to show TLE details & history
Last TLE update: 23 hours ago

TLE from 23 hours ago
0 THORAD AGENA D DEB
1 05698U 70025MD  25287.20345733  .00000346  00000-0  51893-3 0  9995
2 05698  99.3631 140.8379 0007710 169.8242 309.6298 13.60191782557002
Epoch: 2025-10-14T04:52Z
TLE epoch observation values (Epoch: 2025-10-14T04:52:58.713Z)
Latitude
59.38087°
Longitude
-119.31123°
Altitude
1,041.351 km
Speed
7.339 km/s
True Right ascension
22h 27m 42s
True Declination
59° 14' 08"
Sunlit
Object was in daylight at epoch
Visualization orbit readout
Latitude
Unknown
Longitude
Unknown
Altitude
Unknown
Speed
Unknown
Apparent Right ascension
Unknown
Apparent Declination
Unknown
Sunlit
N/A
Visualization observer readout
Local Sidereal Time
22:01:31
Azimuth
Unknown
Elevation
Unknown
Doppler factor
Unknown
Orbital elements
Apogee altitude
1,037.979 km
Perigee altitude
1,026.552 km
Semi-major axis
7,410.403 km
Eccentricity
0.00077
Inclination
99.3631°
RAAN
140.8379°
Arg. of periapsis
169.8242°
True anomaly
309.56171°
Mean anomaly
309.6298°
Eccentric anomaly
309.59576°
Mean motion
3.40236 °/min
Orbital period
105.81 mins
BSTAR
0.00051893

Documentation

Showing up to 5 results
|